Location: Vale
(35.4830°N, 81.3830°W)
Time: 05:33:30
(UTC-05:00)

SR - All Passes

Search period start: 27 November 2014 00:00
Search period end: 07 December 2014 00:00
Orbit: 578 x 886 km, 66.7° (Epoch: 26 November)

Date Brightness Start Highest point End Pass type
(mag) Time Alt. Az. Time Alt. Az. Time Alt. Az.
27 Nov - 03:51:18 10° ESE 03:52:21 10° ESE 03:53:23 10° E visible
27 Nov - 05:27:47 10° SSW 05:33:44 86° ESE 05:39:35 10° NNE visible
27 Nov - 07:13:09 10° W 07:16:36 16° NW 07:20:00 10° NNW daylight
27 Nov - 14:13:51 10° N 14:18:11 29° NE 14:22:12 10° ESE daylight
27 Nov - 15:56:15 10° NW 16:00:09 25° WSW 16:03:48 10° SSW daylight
28 Nov - 04:39:47 10° S 04:45:23 45° ESE 04:50:55 10° NE visible
28 Nov - 06:22:44 10° WSW 06:27:44 28° NW 06:32:37 10° N visible
28 Nov - 13:26:24 10° N 13:29:20 16° NE 13:32:09 10° E daylight
28 Nov - 15:07:12 10° NW 15:11:58 57° WSW 15:16:20 10° S daylight
29 Nov - 03:52:41 10° SSE 03:57:11 23° ESE 04:01:39 10° ENE visible
29 Nov - 05:33:18 10° SW 05:39:03 50° WNW 05:44:40 10° NNE visible
29 Nov - 14:18:42 10° NNW 14:23:35 63° ENE 14:28:01 10° SE daylight
29 Nov - 16:04:04 10° W 16:04:54 10° WSW 16:05:44 10° WSW daylight
30 Nov - 03:07:57 10° ESE 03:09:07 11° ESE 03:10:18 10° E visible
30 Nov - 04:44:34 10° SSW 04:50:32 87° ESE 04:56:22 10° NNE visible
30 Nov - 06:30:00 10° W 06:33:24 16° NW 06:36:44 10° NNW visible
30 Nov - 13:30:38 10° N 13:34:57 30° NE 13:38:56 10° ESE daylight
30 Nov - 15:13:02 10° NW 15:16:53 25° WSW 15:20:30 10° SSW daylight
01 Dec - 03:56:33 10° S 04:02:10 45° ESE 04:07:41 10° NE visible
01 Dec - 05:39:32 10° WSW 05:44:30 27° NW 05:49:22 10° N visible
01 Dec - 12:43:10 10° N 12:46:05 16° NE 12:48:52 10° E daylight
01 Dec - 14:23:58 10° NW 14:28:42 57° WSW 14:33:02 10° S daylight
02 Dec - 03:09:25 10° SSE 03:13:56 23° ESE 03:18:24 10° ENE visible
02 Dec - 04:50:04 10° SW 04:55:48 49° WNW 05:01:24 10° NNE visible
02 Dec - 13:35:27 10° NNW 13:40:17 63° ENE 13:44:43 10° SE daylight
02 Dec - 15:21:05 10° W 15:21:37 10° WSW 15:22:08 10° WSW daylight
03 Dec - 02:24:34 10° ESE 02:25:51 11° ESE 02:27:08 10° E night (unlit)
03 Dec - 04:01:19 10° SSW 04:07:16 88° ESE 04:13:05 10° NNE visible
03 Dec - 05:46:48 10° W 05:50:08 15° NW 05:53:25 10° NNW visible
03 Dec - 12:47:21 10° N 12:51:39 30° NE 12:55:37 10° ESE daylight
03 Dec - 14:29:47 10° NW 14:33:35 24° WSW 14:37:09 10° SSW daylight
04 Dec - 03:13:16 10° S 03:18:53 45° ESE 03:24:24 10° NE visible
04 Dec - 04:56:17 10° WSW 05:01:14 27° NW 05:06:03 10° N visible
04 Dec - 11:59:53 10° N 12:02:47 16° NE 12:05:32 10° E daylight
04 Dec - 13:40:41 10° NW 13:45:23 56° WSW 13:49:41 10° S daylight
05 Dec - 02:26:06 10° SSE 02:30:38 23° ESE 02:35:07 10° ENE night (unlit)
05 Dec - 04:06:47 10° SW 04:12:31 49° WNW 04:18:05 10° NNE visible
05 Dec - 12:52:09 10° NNW 12:56:57 64° ENE 13:01:21 10° SE daylight
06 Dec - 01:41:10 10° ESE 01:42:32 11° ESE 01:43:54 10° E night (unlit)
06 Dec - 03:18:01 10° SSW 03:23:58 88° ESE 03:29:46 10° NNE visible
06 Dec - 05:03:33 10° W 05:06:50 15° NW 05:10:03 10° NNW visible
06 Dec - 12:04:02 10° N 12:08:18 30° NE 12:12:15 10° ESE daylight
06 Dec - 13:46:29 10° NW 13:50:14 24° WSW 13:53:45 10° SSW daylight
